TimeCST,TemperatureF,Dew PointF,Humidity,Sea Level PressureIn,VisibilityMPH,Wind Direction,Wind SpeedMPH,Gust SpeedMPH,PrecipitationIn,Events,Conditions,WindDirDegrees,DateUTC
12:53 AM,35.1,24.1,64,30.26,10.0,Calm,Calm,-,N/A,,Clear,0,2013-03-03 06:53:00
1:53 AM,30.0,24.1,79,30.26,10.0,Calm,Calm,-,N/A,,Clear,0,2013-03-03 07:53:00
2:53 AM,30.9,25.0,79,30.24,10.0,Calm,Calm,-,N/A,,Clear,0,2013-03-03 08:53:00
3:53 AM,27.0,24.1,89,30.25,10.0,Calm,Calm,-,N/A,,Clear,0,2013-03-03 09:53:00
4:53 AM,28.0,24.1,85,30.26,10.0,Calm,Calm,-,N/A,,Clear,0,2013-03-03 10:53:00
5:53 AM,30.0,23.0,75,30.26,10.0,SE,4.6,-,N/A,,Clear,140,2013-03-03 11:53:00
6:53 AM,30.0,25.0,82,30.25,10.0,SE,4.6,-,N/A,,Clear,140,2013-03-03 12:53:00
7:53 AM,34.0,28.0,79,30.26,10.0,SSE,5.8,-,N/A,,Clear,160,2013-03-03 13:53:00
8:53 AM,39.9,28.0,63,30.26,10.0,SSE,6.9,-,N/A,,Clear,160,2013-03-03 14:53:00
9:53 AM,46.0,28.0,50,30.26,10.0,SE,5.8,-,N/A,,Clear,140,2013-03-03 15:53:00
10:53 AM,48.9,26.1,41,30.25,10.0,South,6.9,-,N/A,,Clear,180,2013-03-03 16:53:00
11:53 AM,53.1,25.0,34,30.21,10.0,Variable,5.8,-,N/A,,Clear,0,2013-03-03 17:53:00
12:53 PM,55.9,26.1,32,30.16,10.0,SE,6.9,-,N/A,,Clear,130,2013-03-03 18:53:00
1:53 PM,57.9,27.0,31,30.11,10.0,SE,10.4,18.4,N/A,,Clear,140,2013-03-03 19:53:00
2:53 PM,61.0,28.0,29,30.07,10.0,SE,11.5,-,N/A,,Clear,130,2013-03-03 20:53:00
3:53 PM,63.0,30.0,29,30.04,10.0,SSE,13.8,-,N/A,,Clear,160,2013-03-03 21:53:00
4:53 PM,61.0,30.0,31,30.03,10.0,SSE,11.5,-,N/A,,Clear,160,2013-03-03 22:53:00
5:53 PM,59.0,30.9,35,30.02,10.0,South,13.8,-,N/A,,Clear,170,2013-03-03 23:53:00
6:53 PM,54.0,30.9,41,30.01,10.0,SSE,9.2,-,N/A,,Clear,150,2013-03-04 00:53:00
7:53 PM,54.0,30.9,41,30.01,10.0,SSE,10.4,-,N/A,,Clear,150,2013-03-04 01:53:00
8:53 PM,54.0,30.9,41,29.99,10.0,SSE,15.0,-,N/A,,Clear,160,2013-03-04 02:53:00
9:53 PM,53.1,30.9,43,29.99,10.0,South,10.4,-,N/A,,Clear,170,2013-03-04 03:53:00
10:53 PM,52.0,33.1,49,30.00,10.0,SSE,12.7,-,N/A,,Clear,160,2013-03-04 04:53:00
11:53 PM,51.1,35.1,54,29.99,10.0,South,12.7,-,N/A,,Clear,170,2013-03-04 05:53:00